Location: Shepherdstown, WV
(39.4326°N, 77.8042°W)
Time: 04:32:14
(UTC-04:00)

Vanguard 1 - Pass Details

Date: 02 October 2021
Orbit: 653 x 3829 km, 34.2° (Epoch: 18 October)

Event Time Altitude Azimuth Distance (km) Brightness Sun altitude
Rises 01:52:07 0° 284° (WNW) 7,491 14.5 -52.4°
Reaches altitude 10° 01:58:03 10° 274° (W) 6,730 14.1 -51.9°
Enters shadow 02:00:19 14° 270° (W) 6,471 14.0 -51.8°
